This is the latest recevied weather packets stored in our database for station/object KE5AKC. If no packets are shown the sender has not sent any weather packets the latest 1 day(s).
| Time | Temp. | Humidity | Pressure | Rain* | Wind** | Luminosity | Snow |
|---|---|---|---|---|---|---|---|
| 1778018043 | 28.89° C | 69% | 1006.9 hPa | 0 mm | 0.45 m/s, 175° | 243 W/m² | - |
| 1778017741 | 28.89° C | 68% | 1006.9 hPa | 0 mm | 0.89 m/s, 232° | 248 W/m² | - |
| 1778017438 | 29.44° C | 69% | 1006.9 hPa | 0 mm | 0.89 m/s, 203° | 259 W/m² | - |
| 1778017135 | 28.89° C | 69% | 1007.3 hPa | 0 mm | 1.34 m/s, 178° | 318 W/m² | - |
| 1778016833 | 28.89° C | 70% | 1007.3 hPa | 0 mm | 0.45 m/s, 226° | 362 W/m² | - |
| 1778016529 | 28.89° C | 70% | 1007.3 hPa | 0 mm | 1.34 m/s, 207° | 338 W/m² | - |
| 1778016226 | 29.44° C | 69% | 1007.3 hPa | 0 mm | 0.89 m/s, 156° | 289 W/m² | - |
| 1778015922 | 28.89° C | 70% | 1007.3 hPa | 0 mm | 0.45 m/s, 143° | 378 W/m² | - |
| 1778015620 | 28.89° C | 70% | 1007.6 hPa | 0 mm | 1.79 m/s, 211° | 275 W/m² | - |
| 1778015316 | 29.44° C | 69% | 1007.3 hPa | 0 mm | 2.24 m/s, 111° | 144 W/m² | - |
| 1778015013 | 29.44° C | 69% | 1007.3 hPa | 0 mm | 0.89 m/s, 184° | 194 W/m² | - |
| 1778014710 | 29.44° C | 68% | 1008 hPa | 0 mm | 0.45 m/s, 251° | 387 W/m² | - |
| 1778014408 | 28.89° C | 70% | 1007.6 hPa | 0 mm | 0.45 m/s, 171° | 395 W/m² | - |
| 1778014104 | 28.89° C | 69% | 1007.6 hPa | 0 mm | 0.89 m/s, 245° | 350 W/m² | - |
| 1778013803 | 29.44° C | 68% | 1008 hPa | 0 mm | 2.24 m/s, 127° | 222 W/m² | - |
| 1778013500 | 29.44° C | 67% | 1008 hPa | 0 mm | 1.34 m/s, 291° | 232 W/m² | - |
| 1778013196 | 29.44° C | 68% | 1008 hPa | 0 mm | 0.45 m/s, 159° | 306 W/m² | - |
| 1778012892 | 30° C | 67% | 1008 hPa | 0 mm | 1.34 m/s, 69° | 408 W/m² | - |
| 1778012589 | 30° C | 67% | 1008.3 hPa | 0 mm | 1.34 m/s, 143° | 393 W/m² | - |
| 1778012285 | 30° C | 66% | 1008 hPa | 0 mm | 2.68 m/s, 169° | 467 W/m² | - |
| 1778011983 | 30° C | 67% | 1008 hPa | 0 mm | 0.45 m/s, 157° | 458 W/m² | - |
| 1778011681 | 29.44° C | 68% | 1008 hPa | 0 mm | 1.34 m/s, 44° | 627 W/m² | - |
| 1778011378 | 28.89° C | 69% | 1008.3 hPa | 0 mm | 3.13 m/s, 237° | 610 W/m² | - |
| 1778011073 | 28.89° C | 71% | 1008.3 hPa | 0 mm | 1.34 m/s, 225° | 462 W/m² | - |
| 1778010771 | 29.44° C | 69% | 1008.3 hPa | 0 mm | 1.79 m/s, 195° | 350 W/m² | - |
* Rain latest hour (hover to see other rain measurements)
** Current wind speed in m/s (hover to see current wind gust speed)